TimeMST,TemperatureF,Dew PointF,Humidity,Sea Level PressureIn,VisibilityMPH,Wind Direction,Wind SpeedMPH,Gust SpeedMPH,PrecipitationIn,Events,Conditions,WindDirDegrees,DateUTC
12:15 AM,3.2,1.4,92,30.33,10.0,North,3.5,-,N/A,,Clear,10,2013-01-19 07:15:00
12:36 AM,3.2,1.4,92,30.33,10.0,NNW,4.6,-,N/A,,Clear,340,2013-01-19 07:36:00
12:55 AM,-0.4,-2.2,92,30.33,10.0,North,5.8,-,N/A,,Clear,10,2013-01-19 07:55:00
1:15 AM,-0.4,-0.4,100,30.34,10.0,North,10.4,-,N/A,,Clear,350,2013-01-19 08:15:00
1:35 AM,-0.4,-0.4,100,30.34,10.0,NE,5.8,-,N/A,,Clear,50,2013-01-19 08:35:00
1:55 AM,1.4,-0.4,92,30.34,10.0,North,5.8,-,N/A,,Clear,10,2013-01-19 08:55:00
2:15 AM,-0.4,-2.2,92,30.34,10.0,North,6.9,-,N/A,,Clear,350,2013-01-19 09:15:00
2:35 AM,-2.2,-2.2,100,30.35,10.0,North,11.5,-,N/A,,Clear,350,2013-01-19 09:35:00
2:55 AM,-4.0,-5.8,92,30.35,10.0,NE,6.9,-,N/A,,Clear,40,2013-01-19 09:55:00
3:15 AM,-4.0,-5.8,92,30.36,10.0,North,8.1,-,N/A,,Clear,10,2013-01-19 10:15:00
3:35 AM,-2.2,-2.2,100,30.37,10.0,North,4.6,-,N/A,,Clear,360,2013-01-19 10:35:00
4:15 AM,-7.6,-9.4,92,30.37,4.0,NNE,3.5,-,N/A,,Clear,30,2013-01-19 11:15:00
4:35 AM,-7.6,-9.4,92,30.38,10.0,North,6.9,-,N/A,,Clear,10,2013-01-19 11:35:00
4:55 AM,-7.6,-9.4,92,30.37,10.0,NE,9.2,-,N/A,,Clear,40,2013-01-19 11:55:00
5:15 AM,-7.6,-9.4,92,30.38,10.0,North,10.4,-,N/A,,Clear,350,2013-01-19 12:15:00
5:35 AM,-7.6,-9.4,92,30.38,3.0,NE,6.9,-,N/A,,Clear,40,2013-01-19 12:35:00
5:55 AM,-7.6,-9.4,92,30.39,3.0,NNE,5.8,-,N/A,,Clear,20,2013-01-19 12:55:00
6:35 AM,-9.4,-11.2,92,30.40,10.0,NNE,4.6,-,N/A,,Clear,20,2013-01-19 13:35:00
6:52 AM,-7.6,-11.2,84,30.41,10.0,NNE,8.1,-,N/A,,Clear,30,2013-01-19 13:52:00
7:55 AM,-5.8,-7.6,92,30.42,10.0,North,8.1,-,N/A,,Clear,360,2013-01-19 14:55:00
8:59 AM,-7.6,-9.4,92,30.44,10.0,North,6.9,-,N/A,,Clear,10,2013-01-19 15:59:00
9:53 AM,-0.4,-0.4,100,30.45,10.0,Calm,Calm,-,N/A,,Clear,0,2013-01-19 16:53:00
10:52 AM,3.2,1.4,92,30.45,10.0,Calm,Calm,-,N/A,,Clear,0,2013-01-19 17:52:00
11:53 AM,8.6,3.2,79,30.43,10.0,Calm,Calm,-,N/A,,Clear,0,2013-01-19 18:53:00
12:52 PM,8.6,5.0,85,30.40,10.0,Calm,Calm,-,N/A,,Clear,0,2013-01-19 19:52:00
1:57 PM,14.0,6.8,73,30.38,10.0,Calm,Calm,-,N/A,,Clear,0,2013-01-19 20:57:00
2:53 PM,15.8,8.6,73,30.36,10.0,Calm,Calm,-,N/A,,Clear,0,2013-01-19 21:53:00
3:51 PM,15.8,8.6,73,30.36,10.0,Calm,Calm,-,N/A,,Clear,0,2013-01-19 22:51:00
4:52 PM,14.0,8.6,79,30.35,10.0,South,4.6,-,N/A,,Clear,170,2013-01-19 23:52:00
5:51 PM,8.6,5.0,85,30.34,10.0,Calm,Calm,-,N/A,,Clear,0,2013-01-20 00:51:00
6:54 PM,3.2,3.2,100,30.33,10.0,Calm,Calm,-,N/A,,Clear,0,2013-01-20 01:54:00
7:54 PM,3.2,1.4,92,30.34,10.0,NNE,4.6,-,N/A,,Clear,20,2013-01-20 02:54:00
8:53 PM,1.4,-0.4,92,30.34,10.0,North,5.8,-,N/A,,Clear,360,2013-01-20 03:53:00
9:15 PM,3.2,1.4,92,30.35,10.0,North,8.1,-,N/A,,Clear,10,2013-01-20 04:15:00
9:35 PM,3.2,1.4,92,30.34,10.0,North,3.5,-,N/A,,Clear,10,2013-01-20 04:35:00
10:15 PM,-0.4,-2.2,92,30.34,10.0,NNE,5.8,-,N/A,,Clear,20,2013-01-20 05:15:00
10:55 PM,-0.4,-0.4,100,30.35,10.0,NNE,5.8,-,N/A,,Clear,30,2013-01-20 05:55:00
11:15 PM,-0.4,-2.2,92,30.34,10.0,NNE,3.5,-,N/A,,Clear,20,2013-01-20 06:15:00
11:35 PM,-2.2,-4.0,92,30.34,10.0,NE,3.5,-,N/A,,Clear,40,2013-01-20 06:35:00
11:55 PM,-2.2,-2.2,100,30.35,10.0,NNE,5.8,-,N/A,,Clear,20,2013-01-20 06:55:00